Regional Weather Roundup
Issued by NWS

Home | Current Version | Previous Version | Text Only | Print | Product List | Glossary On
Versions: 1 2 3 4 5 6 7 8 9 10 11 12 13 14 15 16 17 18 19 20 21 22 23 24 25 26 27 28 29 30 31 32 33 34 35 36 37 38 39 40 41 42 43 44 45 46 47 48 49 50
000
ASUS45 KREV 290910
RWRNV
NEVADA REGIONAL WEATHER ROUNDUP
NATIONAL WEATHER SERVICE RENO NV
200 AM PDT FRI MAY 29 2015

NOTE: "FAIR" INDICATES FEW OR NO CLOUDS BELOW 12,000 FEET WITH NO
SIGNIFICANT WEATHER AND/OR OBSTRUCTIONS TO VISIBILITY.

NVZ001-003-004-291000-
WESTERN NEVADA

CITY           SKY/WX    TMP DP  RH WIND       PRES   REMARKS
RENO           PTCLDY    63  42  46 CALM      30.09S
CARSON CITY    FAIR      55  39  54 CALM      30.11S
MINDEN         FAIR      45  36  70 SE5       30.11
FALLON         NOT AVBL
LOVELOCK       CLEAR     56  41  57 NE3       30.05S
HAWTHORNE      CLEAR     63  39  42 CALM      30.06S
$$

NVZ002-CAZ072-073-291000-
NORTHERN AND CENTRAL SIERRA

CITY           SKY/WX    TMP DP  RH WIND       PRES   REMARKS
S. LAKE TAHOE  CLEAR     46  38  73 CALM      30.19F
TRUCKEE        CLEAR     41  37  87 CALM      30.19F
SQUAW VLY 8000   N/A     48  32  53 NE1         N/A
BLUE CANYON    CLEAR     62  31  31 CALM      30.14F
MAMMOTH LAKES  FAIR      48  32  53 CALM      30.23F
BRIDGEPORT     FAIR      43  34  70 CALM      30.21S
$$

NVZ030-031-036-291000-
NORTHERN NEVADA

CITY           SKY/WX    TMP DP  RH WIND       PRES   REMARKS
ELKO           PTCLDY    55  42  61 E3        30.15S
WINNEMUCCA     CLEAR     58  41  53 NE10        N/A
WENDOVER       CLEAR     57  46  67 CALM      30.16S
$$

NVZ035-037-291000-
CENTRAL NEVADA

CITY           SKY/WX    TMP DP  RH WIND       PRES   REMARKS
ELY            CLEAR     44  40  85 S9        30.22S
EUREKA           N/A     47  38  71 S3        30.18S
$$

NVZ013-014-291000-
SOUTH CENTRAL NEVADA

CITY           SKY/WX    TMP DP  RH WIND       PRES   REMARKS
TONOPAH        CLEAR     62  32  32 N12       30.11S
$$

NVZ017-020-022-291000-
SOUTHERN NEVADA

CITY           SKY/WX    TMP DP  RH WIND       PRES   REMARKS
LAS VEGAS      PTCLDY    83  27  13 S10       29.84R
N. LAS VEGAS   PTCLDY    79  29  16 NE6       29.88R
NELLIS AFB     PTCLDY    81  32  17 NE13      29.86R
HENDERSON      PTCLDY    79  30  16 S8        29.91S
MERCURY        CLEAR     68  27  21 NE5       29.94S
$$


USA.gov is the U.S. government's official web portal to all federal, state and local government web resources and services.